Other Public Products
Issued by NWS Charleston, SC

Home | Current Version | Previous Version | Text Only | Print | Product List | Glossary On
Versions: 1 2 3 4 5 6 7 8 9 10 11 12 13 14 15 16 17 18 19 20 21 22 23 24 25 26 27 28 29 30 31 32 33 34 35 36 37 38 39 40 41 42 43 44 45 46 47 48 49 50
000
FPUS82 KCHS 230427
OPUCHS

TEST...KCHS/KSAV Gateway Observations...TEST
National Weather Service Charleston SC
1200 AM EDT TUE MAY 23 2017

NOTE: "fair" indicates few or no clouds below 12,000 feet with no
significant weather and/or obstructions to visibility.

SCZ050-WAZ558-NCZ071-TXZ119-213-PAZ071-DCZ001-FLZ074-172-MI076-
NYZ176-178-MAZ016-IL014-TNZ027-NJZ106-GAZ044-MD014-230500-

...Gateway Observations for Charleston International...

CITY           SKY/WX    TMP DP  RH WIND       PRES   REMARKS
Chas Airport   LGT RAIN  75  72  90 S6        29.96F
Seattle        PTCLDY    72  52  49 NW5       30.05R
Charlotte      CLOUDY    68  65  90 S5        29.96F
Dallas DFW     CLOUDY    69  62  78 SE12      29.92R
Dallas Love    MOCLDY    68  61  78 SE15      29.93R
Philladelphia  CLOUDY    65  60  84 NW5       29.97S
Wash National  PTCLDY    66  65  96 CALM      29.99R
Baltimore      PTCLDY    61  61 100 W3        29.98S FOG
Miami          PTCLDY    79  68  69 S6        30.05R
Detroit        PTCLDY    59  48  67 S6        29.95F
Newark         CLOUDY    59  59 100 W9        29.96S
Laguardia      CLOUDY    61  58  90 N8        29.94F
J F K          CLOUDY    63  61  93 W7        29.96F
Boston Logan   LGT RAIN  53  53 100 N6        29.98F FOG
Ft. Lauderdale PTCLDY    80  70  71 S6        30.04R
Chicago O`Hare CLOUDY    60  53  77 SW8       29.89F
Chicago Midway CLOUDY    60  55  83 S8        29.90F
Houston Bush   CLOUDY    69  64  84 N9        29.88S
Houston Hobby  CLOUDY    69  65  86 N13       29.87R
Nashville      CLOUDY    66  55  67 N6        29.96F
Atlanta        LGT RAIN  69  68  96 NW3       29.95F

$$

GAZ044-118-TXZ119-213-NCZ071-DCZ001-MDZ014-506-PAZ021-071-NJZ106-
NYZ176-178-MAZ106-OHZ011-021-055-MIZ076-KYZ091-ILZ014-INZ047-
MNZ060-ONZ431-230500-

...Gateway Observations for Savannah International...

CITY           SKY/WX    TMP DP  RH WIND       PRES   REMARKS
Savannah Arpt  HVY RAIN  73  72  96 MISG      29.96S FOG
Atlanta        LGT RAIN  69  68  96 NW3       29.95F
Charlotte      CLOUDY    68  65  90 S5        29.96F
Dallas DFW     CLOUDY    69  62  78 SE12      29.92R
Houston Bush   CLOUDY    69  64  84 N9        29.88S
Wash National  PTCLDY    66  65  96 CALM      29.99R
Wash Dulles    MOCLDY    64  62  93 NW6       29.99R
Baltimore      PTCLDY    61  61 100 W3        29.98S FOG
Philadelphia   CLOUDY    65  60  84 NW5       29.97S
Newark         CLOUDY    59  59 100 W9        29.96S
Laguardia      CLOUDY    61  58  90 N8        29.94F
J F K          CLOUDY    63  61  93 W7        29.96F
Boston         LGT RAIN  53  53 100 N6        29.98F FOG
Pittsburg      CLOUDY    53  49  86 CALM      30.03F
Akron          CLEAR     56  46  69 S8        30.02F
Cleveland      MOCLDY    58  48  69 S8        30.01F
Cincinnati     CLOUDY    56  47  71 CALM      30.00F
Columbus       CLOUDY    55  49  80 CALM      30.01S
Detroit        PTCLDY    59  48  67 S6        29.95F
Chicago O`Hare CLOUDY    60  53  77 SW8       29.89F
Minneapolis    CLOUDY    58  42  55 N5        29.83S
Indianapolis   CLOUDY    60  48  64 S7        29.98F
Toronto Canada CLEAR     52  46  82 W6        29.94F

$$




USA.gov is the U.S. government's official web portal to all federal, state and local government web resources and services.